Terug naar catalogus

PSLV DEB

ActiefSSO
NORAD 28852·DEBRIS·🇮🇳 India

Gelanceerd Oct 22, 2001 vanaf Satish Dhawan Space Centre

Loading…

Volgende Passages (komende 24 uur)

TLE

VersSource: Space-Track

Epoch: Sep 11, 2026, 08:29 UTC

1 28852U 01049PE  26254.35366961  .00000432  00000-0  67167-4 0  9997
2 28852  98.2417 298.7358 0042250  59.3903 359.7014 14.77723569711483

Volg PSLV DEB in realtime met AllMySat

Download on the App Store